sat.trackr.live / text

‹ back to catalog

STARLINK-37513

NORAD 69456 · 2026-127P

PAYLOAD ACTIVE UNKNOWN

§ Identity

Operator
Country
US
Launch date
2026-06-08
Launch site
AFETR
Launch vehicle
Mass (kg)
RCS (m²)

Purposes: comms

External: N2YO · Heavens-Above · Gunter

§ Orbital elements

Epoch: 2026-09-20T00:57:21.331872Z

Period
93.85 min
Inclination
53.1572°
Eccentricity
0.0001422
Mean motion
15.34384915 rev/d
Perigee alt
461.8 km
Apogee alt
463.7 km
Semi-major
6,840.9 km
B*
5.2708e-6
RAAN
167.6946°
Arg perigee
74.4803°
Mean anomaly
285.6357°
Rev number
1,612

§ Raw data

STARLINK-375131 69456U 26127P   26263.03983023 -.00000198  00000+0  52708-5 0  99902 69456  53.1572 167.6946 0001422  74.4803 285.6357 15.34384915 16128

JSON: /api/v1/satellites/69456 · /tle

For live sub-satellite position, see the globe view (requires WebGL).

§ Visibility from observer

Set your observer location to see the next 7 days of passes ≥ 10°. The values pass through the URL so the page stays shareable.

No JS? Fill the form by hand. The geolocation button needs JavaScript.